EW5490 Weather Reports


Display with metric or nautical units.
time (UTC)temp
F
wind
direction
speed
MPH
gust
MPH
rain 1hr
in
rain 24hr
in
rain mn
in
humidity
%
barometer
mb
20260505210005 56 160 1.0 5.0 0.00 0.00 0.00 82 1016.5
20260505204508 57 170 0.0 3.0 0.00 0.00 0.00 81 1016.4
20260505203004 57 146 3.0 8.0 0.00 0.00 0.00 80 1016.3
20260505201507 57 136 2.0 6.0 0.00 0.00 0.00 79 1016.5
20260505200002 57 139 2.0 7.0 0.00 0.00 0.00 78 1016.5
20260505194504 58 166 6.0 13.0 0.00 0.00 0.00 78 1016.4
20260505193001 57 160 5.0 10.0 0.00 0.00 0.00 78 1016.4
20260505191612 58 134 4.0 8.0 0.00 0.00 0.00 78 1016.3
20260505190100 58 151 5.0 10.0 0.00 0.00 0.00 78 1016.3
20260505184600 58 123 3.0 9.0 0.00 0.00 0.00 79 1016.6
20260505183057 58 126 3.0 10.0 0.00 0.00 0.00 79 1016.2
20260505181555 58 134 6.0 11.0 0.00 0.00 0.00 78 1016.1
20260505180058 58 136 5.0 9.0 0.00 0.00 0.00 78 1015.8
20260505174550 58 121 3.0 9.0 0.00 0.00 0.00 78 1015.6
20260505173055 59 146 3.0 8.0 0.00 0.00 0.00 77 1015.5
20260505171549 60 155 2.0 8.0 0.00 0.00 0.00 79 1015.4
20260505170103 60 148 3.0 12.0 0.00 0.00 0.00 81 1015.2
20260505164547 60 189 4.0 9.0 0.00 0.00 0.00 81 1015.1
20260505163043 61 169 6.0 16.0 0.00 0.00 0.00 80 1014.9
20260505161541 61 222 4.0 9.0 0.00 0.00 0.00 78 1014.7
20260505153041 64 184 4.0 9.0 0.00 0.00 0.00 73 1014.5
20260505151554 64 192 6.0 10.0 0.00 0.00 0.00 72 1014.4
20260505120002 64 174 3.0 7.0 0.00 0.00 0.00 65 1013.5
20260505114503 65 217 2.0 7.0 0.00 0.00 0.00 65 1013.6
20260505113003 67 169 3.0 9.0 0.00 0.00 0.00 63 1013.8
20260505111600 67 190 4.0 7.0 0.00 0.00 0.00 63 1013.9
20260505101557 65 345 1.0 5.0 0.00 0.00 0.00 62 1014.4
20260505100058 65 259 2.0 7.0 0.00 0.00 0.00 63 1014.5
20260505094555 65 296 3.0 7.0 0.00 0.00 0.00 64 1014.5
20260505093050 65 324 1.0 6.0 0.00 0.00 0.00 65 1014.6
20260505091548 63 341 1.0 5.0 0.00 0.00 0.00 68 1014.6
20260505090057 63 23 2.0 5.0 0.00 0.00 0.00 70 1014.6
20260505084549 63 5 2.0 6.0 0.00 0.00 0.00 72 1014.8
20260505083040 62 348 3.0 8.0 0.00 0.00 0.00 72 1014.7
20260505081543 61 5 1.0 6.0 0.00 0.00 0.00 74 1014.6
20260505080037 60 355 2.0 8.0 0.00 0.06 0.00 76 1014.6
20260505074532 59 42 2.0 5.0 0.00 0.06 0.00 75 1014.5
20260505073037 59 331 2.0 4.0 0.00 0.06 0.00 77 1014.5
20260505071526 58 9 1.0 4.0 0.00 0.06 0.00 78 1014.4
20260505070023 57 62 2.0 5.0 0.00 0.13 0.00 80 1014.1
20260505064525 55 47 1.0 5.0 0.00 0.13 0.00 83 1014.0
20260505063024 54 40 1.0 4.0 0.00 0.13 0.00 85 1013.7
20260505061519 53 44 2.0 4.0 0.00 0.13 0.00 86 1013.6
20260505060026 53 43 2.0 4.0 0.00 0.19 0.00 86 1013.5
20260505054530 52 53 1.0 3.0 0.00 0.19 0.00 86 1013.4
20260505053014 52 48 2.0 3.0 0.00 0.19 0.00 86 1013.1
20260505051511 52 49 1.0 3.0 0.00 0.19 0.00 85 1013.0
20260505041509 53 46 2.0 4.0 0.00 0.30 0.00 83 1012.7
20260505040008 54 49 1.0 3.0 0.00 0.45 0.00 81 1012.6
20260505034508 54 43 3.0 9.0 0.00 0.45 0.00 81 1012.5
20260505033015 53 48 3.0 6.0 0.00 0.45 0.00 83 1012.4
20260505031505 52 56 2.0 4.0 0.00 0.45 0.00 84 1012.3
20260505030004 53 40 0.0 3.0 0.00 0.74 0.00 82 1012.4
20260505024504 54 47 1.0 3.0 0.00 0.74 0.00 79 1012.4
20260505023002 55 61 1.0 3.0 0.00 0.74 0.00 79 1012.3
20260505021501 54 59 2.0 3.0 0.00 0.74 0.00 80 1012.2
20260505020100 54 53 0.0 2.0 0.00 0.74 0.00 82 1012.3
20260505020001 54 53 0.0 2.0 0.00 0.76 0.00 82 1012.3
20260505014559 54 53 0.0 2.0 0.00 0.76 0.00 81 1012.3
20260505013057 54 53 1.0 2.0 0.00 0.76 0.00 80 1012.3
20260505011600 55 53 1.0 4.0 0.00 0.76 0.00 79 1012.4
20260505010057 55 49 2.0 5.0 0.00 0.76 0.00 79 1012.6
20260505004554 55 42 2.0 4.0 0.00 0.76 0.00 79 1012.7
20260505003049 55 25 2.0 4.0 0.00 0.76 0.00 78 1012.8
20260505001548 56 53 3.0 6.0 0.00 0.76 0.00 77 1012.9
20260505000049 56 37 4.0 7.0 0.00 0.76 0.00 77 1012.9
20260504234612 56 36 3.0 9.0 0.00 0.76 0.00 77 1013.0
20260504233050 56 29 3.0 5.0 0.00 0.76 0.00 79 1012.9
20260504231553 56 22 3.0 11.0 0.00 0.76 0.00 82 1012.9
20260504230043 55 47 2.0 6.0 0.00 0.77 0.00 87 1012.9
20260504224541 55 51 4.0 8.0 0.00 0.77 0.00 87 1012.8
20260504223040 56 35 4.0 9.0 0.00 0.77 0.00 89 1012.8
20260504221536 56 19 4.0 11.0 0.00 0.77 0.00 88 1013.0
20260504220033 56 40 4.0 9.0 0.00 0.79 0.77 88 1013.1
20260504214538 56 54 4.0 10.0 0.00 0.79 0.77 89 1013.2
20260504213032 56 5 4.0 8.0 0.00 0.79 0.77 89 1013.4
20260504211531 57 42 2.0 6.0 0.00 0.79 0.77 88 1013.3